Voltar ao catálogo

STARLINK-11622

AtivoComunicaçõesVLEO
NORAD 63187·PAYLOAD·🇺🇸 United States

Lançado Mar 13, 2025 de Cape Canaveral Space Force Station

Loading…

Próximas Passagens (próximas 24 horas)

TLE

AtualizadoSource: CelesTrak SupGP

Época: Sep 15, 2026, 03:28 UTC

1 63187C 25048E   26258.14493056 -.00065085  00000+0 -50524-3 0  2581
2 63187  43.0006 258.3074 0001476 258.7375  88.2738 15.70884057    16

Acompanhe STARLINK-11622 em tempo real com AllMySat

Download on the App Store